Notices

What's New in latest Release from April 7th, 2021:

- Updated Glossary, including Speed of Maximum Gust, and Total Hourly Precipitation

- Updated national and regional climate services offices contacts and prices information

- Addition of station inventory lists for 1981-2010, 1971-2000, and 1961-1990 Normals.

If you haven't already, please take our survey and provide feedback about our website: https://eccc.sondage-survey.ca/f/LanguageSelection.aspx?s=442ca660-fcf1-47c0-95a9-59707d6fd709

Hourly Data Report for March 17, 2021

NANAIMO A
BRITISH COLUMBIA
Current Station Operator: NAVCAN

49°03'16.000" N
123°52'12.000" W
28.00 m
1025365
YCD

Download Data

Hourly Data (March 2021)
Hourly Data Report for March 17, 2021
TIME
LST
Temp Definition
°C
Dew Point Definition
°C
Rel Hum Definition
%
Precip. Amount Definition
mm

Wind Dir Definition
10's deg

Wind Spd Definition
km/h
Visibility Definition
km
Stn Press Definition
kPa
Hmdx Definition


Wind Chill Definition


Weather Definition


00:00 -1.2 -2.5 91 LegendMM 21 3 LegendMM 101.56   -2 LegendNANA
01:00 -0.4 -1.2 94 LegendMM 14 4 LegendMM 101.54   -2 LegendNANA
02:00 -0.6 -1.3 95 LegendMM 26 4 LegendMM 101.54   -2 LegendNANA
03:00 -1.2 -1.9 95 LegendMM 12 3 LegendMM 101.55   -2 LegendNANA
04:00 -0.1 -0.8 95 LegendMM 21 3 LegendMM 101.53   -1 LegendNANA
05:00 -0.3 -1.0 95 LegendMM 22 2 LegendMM 101.53   -1 LegendNANA
06:00 -0.9 -1.5 96 LegendMM 24 3 LegendMM 101.52   -2 LegendNANA
07:00 -0.8 -1.6 95 LegendMM 23 2 LegendMM 101.54   -1 LegendNANA
08:00 1.0 -1.0 87 LegendMM 18 3 LegendMM 101.51     LegendNANA
09:00 5.1 0.8 74 LegendMM 11 4 LegendMM 101.51     LegendNANA
10:00 7.0 1.4 68 LegendMM 24 4 LegendMM 101.44     LegendNANA
11:00 8.7 1.6 61 LegendMM 15 10 LegendMM 101.37     LegendNANA
12:00 10.3 1.0 52 LegendMM 10 12 LegendMM 101.32     LegendNANA
13:00 11.2 1.4 51 LegendMM 6 11 LegendMM 101.24     LegendNANA
14:00 10.9 -0.2 46 LegendMM 12 9 LegendMM 101.18     LegendNANA
15:00 10.4 -0.4 47 LegendMM 7 11 LegendMM 101.13     LegendNANA
16:00 10.4 -0.5 46 LegendMM 6 7 LegendMM 101.05     LegendNANA
17:00 10.1 0.9 53 LegendMM 17 6 LegendMM 100.97     LegendNANA
18:00 9.5 0.6 54 LegendMM 21 5 LegendMM 100.92     LegendNANA
19:00 7.1 1.4 67 LegendMM 24 4 LegendMM 100.88     LegendNANA
20:00 5.7 1.8 76 LegendMM 0 1 LegendMM 100.86     LegendNANA
21:00 4.7 1.9 82 LegendMM 5 2 LegendMM 100.86     LegendNANA
22:00 3.6 2.1 90 LegendMM 26 6 LegendMM 100.84     LegendNANA
23:00 2.0 1.2 94 LegendMM 24 1 LegendMM 100.85     LegendNANA

Notes on Data Quality.

Legend

  • E = Estimated
  • M = Missing
  • NA = Not Available*
  • [empty] = Indicates an unobserved value
Date modified: